Location: Greenwich
(51.4790°N, 0.0090°E)
Time: 13:59:08
(UTC+01:00)

Altair - Pass Details

Date: 24 June 2025
Orbit: 1502 x 1682 km, 47.2° (Epoch: 19 July)

Event Time Altitude Azimuth Distance (km) Brightness Sun altitude
Rises 02:32:33 0° 273° (W) 4,663 9.8 -12.5°
Reaches altitude 10° 02:35:34 10° 270° (W) 3,695 9.3 -12.4°
Maximum altitude 02:44:46 66° 192° (SSW) 1,689 7.5 -11.8°
Drops below altitude 10° 02:54:18 10° 113° (ESE) 3,825 9.6 -11.2°
Sets 02:57:29 0° 111° (ESE) 4,834 10.2 -11.0°
